• Join FlightAware (Why Join?)
  • Login
  • US Flag 
02:37AM EDT


 

Airport Tracker/Info


-or-


 

Live Flight TrackerFlight Track Log ✈ EJA929 ✈ 11-Sep-2013 ✈ KALB - KLEX

Flight Track Log - Related Links

Times and Time Zones

All times are in EDT time to prevent confusion due to time zone crossing. See the EJA929 flight status page for this flight to view local times or setup timezone preferences in your user account.

Time Position Orientation Groundspeed Altitude Reporting Facility
EDT Latitude Longitude Course Direction KTS MPH feet Rate Location/Type
10:42AM 42.6664 -73.8858 223° Southwest 230 265 6,400  Level Boston Center
10:43AM 42.6506 -73.9758 257° West 241 277 9,300 2,220 Climbing Boston Center
10:44AM 42.6264 -74.0711 251° West 256 295 10,900 1,380 Climbing Boston Center
10:45AM 42.5428 -74.0831 186° South 242 278 12,200 1,500 Climbing Boston Center
10:46AM 41.6112 -74.3014 191° South  Level FlightAware Approximate
10:46AM 42.4325 -74.0661 174° South 285 328 14,000  Level Boston Center
10:47AM 42.3369 -74.0522 174° South 346 398 15,500 1,560 Climbing Boston Center
10:48AM 42.2161 -74.0408 176° South 390 449 17,100 1,680 Climbing Boston Center
10:49AM 42.1156 -74.0858 198° South 383 441 18,900 1,560 Climbing Boston Center
10:50AM 42.0125 -74.1333 199° South 388 447 20,300 1,380 Climbing Boston Center
10:51AM 41.9097 -74.1808 199° South 394 453 21,700 1,320 Climbing Boston Center
10:53AM 41.7139 -74.2611 197° South 405 466 24,100 1,320 Climbing New York Center
10:54AM 41.6000 -74.3108 198° South 421 484 25,400 1,200 Climbing New York Center
10:55AM 41.5031 -74.3528 198° South 416 479 26,500 1,200 Climbing New York Center
10:56AM 41.3847 -74.4044 198° South 429 494 27,900 1,320 Climbing New York Center
10:57AM 41.2539 -74.4581 197° South 448 516 29,200 1,320 Climbing New York Center
10:58AM 41.1650 -74.5717 224° Southwest 436 502 30,600 1,380 Climbing New York Center
10:59AM 41.0958 -74.7108 237° Southwest 431 496 32,000 1,620 Climbing New York Center
11:00AM 41.0267 -74.8500 237° Southwest 437 503 33,900 1,800 Climbing New York Center
11:01AM 40.9572 -74.9858 236° Southwest 450 518 35,600 1,740 Climbing New York Center
11:02AM 40.9014 -75.0894 235° Southwest 455 524 37,400 1,800 Climbing New York Center
11:03AM 40.8342 -75.2197 236° Southwest 450 518 39,300 1,260 Climbing New York Center
11:04AM 40.7536 -75.3650 234° Southwest 450 518 40,000 300 Climbing New York Center
11:05AM 40.6811 -75.5106 237° Southwest 466 536 40,000  Level New York Center
11:06AM 40.6042 -75.6583 236° Southwest 478 550 40,000  Level New York Center
11:07AM 40.5231 -75.8028 234° Southwest 491 565 40,000  Level New York Center
11:08AM 40.4375 -75.9522 233° Southwest 502 578 40,000  Level New York Center
11:09AM 40.3597 -76.1042 236° Southwest 508 585 40,000  Level New York Center
11:10AM 40.3056 -76.2878 249° West 495 570 40,000  Level New York Center
11:11AM 40.2658 -76.4644 254° West 505 581 40,000  Level New York Center
11:12AM 40.2281 -76.6406 254° West 505 581 40,000  Level New York Center
11:13AM 40.1900 -76.8169 254° West 505 581 40,000  Level New York Center
11:14AM 40.1517 -76.9900 254° West 505 581 40,000  Level New York Center
11:15AM 40.1161 -77.1500 254° West 505 581 40,000  Level New York Center
11:17AM 40.0233 -77.5764 254° West 511 588 40,000  Level Cleveland Center
11:18AM 39.9819 -77.7489 253° West 506 582 40,000  Level Cleveland Center
11:19AM 39.9422 -77.9239 254° West 506 582 40,000  Level Cleveland Center
11:20AM 39.9003 -78.0989 253° West 506 582 40,000  Level Cleveland Center
11:21AM 39.8561 -78.2708 252° West 506 582 40,000  Level Cleveland Center
11:22AM 39.8075 -78.4456 250° West 506 582 40,000  Level Cleveland Center
11:23AM 39.7689 -78.6194 254° West 506 582 40,000  Level Cleveland Center
11:24AM 39.7236 -78.7936 251° West 506 582 40,000  Level Cleveland Center
11:25AM 39.6783 -78.9675 251° West 506 582 40,000  Level Cleveland Center
11:26AM 39.6306 -79.1383 250° West 506 582 40,000  Level Cleveland Center
11:27AM 39.5847 -79.3144 251° West 511 588 40,000  Level Cleveland Center
11:28AM 39.5386 -79.4875 251° West 511 588 40,000  Level Cleveland Center
11:29AM 39.4922 -79.6606 251° West 511 588 40,000  Level Cleveland Center
11:30AM 39.4456 -79.8358 251° West 511 588 40,000  Level Cleveland Center
11:32AM 39.3678 -80.1153 250° West 517 595 40,000  Level Indianapolis Center
11:33AM 39.3111 -80.3244 251° West 514 592 40,000  Level Indianapolis Center
11:34AM 39.2631 -80.4975 250° West 513 590 40,000  Level Indianapolis Center
11:35AM 39.2158 -80.6703 251° West 512 589 40,000  Level Indianapolis Center
11:36AM 39.1667 -80.8456 250° West 519 597 40,000  Level Indianapolis Center
11:37AM 39.1189 -81.0189 250° West 518 596 40,000  Level Indianapolis Center
11:38AM 39.0692 -81.1928 250° West 518 596 40,000 -120 Level Indianapolis Center
11:39AM 39.0214 -81.3667 251° West 519 597 39,800 -960 Descending Indianapolis Center
11:40AM 38.9631 -81.5703 250° West 513 590 38,100 -1,680 Descending Indianapolis Center
11:41AM 38.9144 -81.7400 250° West 515 593 36,400 -1,500 Descending Indianapolis Center
11:42AM 38.8639 -81.9103 249° West 517 595 35,000 -1,200 Descending Indianapolis Center
11:43AM 38.8136 -82.0806 249° West 516 594 34,000 -1,620 Descending Indianapolis Center
11:44AM 38.7628 -82.2517 249° West 516 594 31,700 -2,280 Descending Indianapolis Center
11:45AM 38.7025 -82.4581 250° West 517 595 29,300 -1,920 Descending Indianapolis Center
11:46AM 38.6519 -82.6258 249° West 512 589 27,800 -1,800 Descending Indianapolis Center
11:47AM 38.6044 -82.7814 249° West 492 566 25,700 -1,860 Descending Indianapolis Center
11:48AM 38.5561 -82.9406 249° West 483 556 24,000 -840 Descending Indianapolis Center
11:49AM 38.5089 -83.0950 249° West 474 545 24,000 -480 Level Indianapolis Center
11:50AM 38.4556 -83.2758 249° West 468 539 23,100 -1,680 Descending Indianapolis Center
11:51AM 38.4075 -83.4289 248° West 468 539 20,600 -2,400 Descending Indianapolis Center
11:52AM 38.3622 -83.5769 249° West 459 528 18,300 -2,280 Descending Indianapolis Center
11:53AM 38.3181 -83.7169 248° West 442 509 16,000 -2,220 Descending Indianapolis Center
11:54AM 38.2747 -83.8569 249° West 432 497 13,800 -2,220 Descending Indianapolis Center
11:55AM 38.2356 -83.9872 249° West 406 467 11,500 -1,860 Descending Indianapolis Center
11:56AM 38.2222 -84.1211 263° West 334 384 10,000 -1,620 Descending Indianapolis Center
11:57AM 38.2164 -84.2147 265° West 280 322 8,200 -1,740 Descending Indianapolis Center
11:58AM 38.2103 -84.3106 265° West 272 313 6,500 -1,680 Descending Indianapolis Center
11:59AM 38.2003 -84.4028 262° West 269 310 4,800 -1,620 Descending Indianapolis Center
12:00PM 38.1572 -84.4714 231° Southwest 261 300 3,200 -1,020 Descending Indianapolis Center
12:01PM 38.1111 -84.5222 221° Southwest 242 278 2,800 -540 Descending Indianapolis Center
12:03PM 38.0694 -84.5661 220° Southwest 216 249 2,100 -720 Descending Indianapolis Center
12:05PM 38.0333 -84.6000 247° West  Level FlightAware Approximate
12:12PM 38.0368 -84.6086 247° West  Level Estimated